• En España
  • Lista de países
  • Para 7 días
  • Temperatura del agua
  • Mapa Satelital
  • El tiempo en el mapa
  • Informadores
  • user-avatar
    Iniciar sesión

    Tiempo cada hora Nikiterevec

    Hoy, 16 Agosto, Jueves

    Tiempo Temperatura Precipitaciones Viento Presión Humedad
    00:00 +15°C° 0 mm 1 mps 741 mmHg 98%
    01:00 +15°C° 0 mm 1 mps 742 mmHg 98%
    02:00 +14°C° 0 mm 2 mps 742 mmHg 97%
    03:00 +14°C° 0 mm 1 mps 743 mmHg 97%
    04:00 +14°C° 0 mm 1 mps 743 mmHg 97%
    05:00 +13°C° 0 mm 1 mps 744 mmHg 97%
    06:00 +14°C° 0 mm 1 mps 744 mmHg 94%
    07:00 +15°C° 0 mm 1 mps 745 mmHg 91%
    08:00 +16°C° 0 mm 1 mps 745 mmHg 87%
    09:00 +18°C° 0 mm 1 mps 745 mmHg 79%
    10:00 +19°C° 0 mm 1 mps 746 mmHg 71%
    11:00 +21°C° 0 mm 1 mps 746 mmHg 63%
    12:00 +22°C° 0 mm 1 mps 746 mmHg 58%
    13:00 +23°C° 0 mm 1 mps 746 mmHg 54%
    14:00 +24°C° 0 mm 2 mps 747 mmHg 49%
    15:00 +23°C° 0 mm 1 mps 747 mmHg 52%
    16:00 +23°C° 0 mm 1 mps 747 mmHg 55%
    17:00 +23°C° 0 mm 1 mps 747 mmHg 58%
    18:00 +21°C° 0 mm 1 mps 747 mmHg 64%
    19:00 +19°C° 0 mm 1 mps 747 mmHg 71%
    20:00 +16°C° 0 mm 1 mps 748 mmHg 77%
    21:00 +15°C° 0 mm 1 mps 748 mmHg 80%
    22:00 +14°C° 0 mm 1 mps 748 mmHg 82%
    23:00 +14°C° 0 mm 1 mps 749 mmHg 84%

    Mañana, 17 Agosto, Viernes

    Tiempo Temperatura Precipitaciones Viento Presión Humedad
    00:00 +13°C° 0 mm 1 mps 749 mmHg 86%
    01:00 +13°C° 0 mm 1 mps 749 mmHg 87%
    02:00 +13°C° 0 mm 1 mps 749 mmHg 89%
    03:00 +12°C° 0 mm 1 mps 750 mmHg 89%
    04:00 +12°C° 0 mm 1 mps 750 mmHg 89%
    05:00 +12°C° 0 mm 1 mps 750 mmHg 89%
    06:00 +15°C° 0 mm 1 mps 750 mmHg 81%
    07:00 +18°C° 0 mm 1 mps 750 mmHg 72%
    08:00 +20°C° 0 mm 1 mps 751 mmHg 64%
    09:00 +21°C° 0 mm 1 mps 751 mmHg 58%
    10:00 +23°C° 0 mm 1 mps 751 mmHg 52%
    11:00 +24°C° 0 mm 2 mps 750 mmHg 46%
    12:00 +25°C° 0 mm 2 mps 750 mmHg 45%
    13:00 +25°C° 0 mm 2 mps 750 mmHg 43%
    14:00 +25°C° 0 mm 2 mps 750 mmHg 42%
    15:00 +25°C° 0 mm 1 mps 750 mmHg 46%
    16:00 +25°C° 0 mm 1 mps 749 mmHg 50%
    17:00 +24°C° 0 mm 1 mps 749 mmHg 55%
    18:00 +22°C° 0 mm 1 mps 749 mmHg 61%
    19:00 +20°C° 0 mm 1 mps 749 mmHg 67%
    20:00 +16°C° 0 mm 1 mps 749 mmHg 74%
    21:00 +16°C° 0 mm 1 mps 749 mmHg 76%
    22:00 +15°C° 0 mm 2 mps 749 mmHg 78%
    23:00 +14°C° 0 mm 2 mps 749 mmHg 80%

    Pasado mañana, 18 Agosto, Sábado

    Tiempo Temperatura Precipitaciones Viento Presión Humedad
    00:00 +14°C° 0 mm 2 mps 749 mmHg 81%
    01:00 +13°C° 0 mm 1 mps 749 mmHg 82%
    02:00 +13°C° 0 mm 1 mps 749 mmHg 83%
    03:00 +13°C° 0 mm 1 mps 749 mmHg 84%
    04:00 +12°C° 0 mm 2 mps 749 mmHg 85%
    05:00 +12°C° 0 mm 2 mps 749 mmHg 85%
    06:00 +14°C° 0 mm 2 mps 749 mmHg 78%
    07:00 +16°C° 0 mm 2 mps 750 mmHg 71%
    08:00 +18°C° 0 mm 2 mps 750 mmHg 65%
    09:00 +20°C° 0 mm 2 mps 749 mmHg 59%
    10:00 +23°C° 0 mm 2 mps 749 mmHg 54%
    11:00 +25°C° 0 mm 2 mps 749 mmHg 49%
    12:00 +25°C° 0 mm 2 mps 749 mmHg 47%
    13:00 +26°C° 0 mm 3 mps 749 mmHg 45%
    14:00 +26°C° 0 mm 3 mps 748 mmHg 44%
    15:00 +26°C° 0 mm 2 mps 748 mmHg 48%
    16:00 +25°C° 0 mm 2 mps 748 mmHg 52%
    17:00 +25°C° 0 mm 2 mps 747 mmHg 56%
    18:00 +23°C° 0 mm 2 mps 747 mmHg 64%
    19:00 +20°C° 0 mm 2 mps 747 mmHg 71%
    20:00 +17°C° 0 mm 2 mps 747 mmHg 78%
    21:00 +17°C° 0 mm 2 mps 747 mmHg 80%
    22:00 +16°C° 0 mm 2 mps 747 mmHg 82%
    23:00 +16°C° 0 mm 2 mps 747 mmHg 84%

    19 Agosto, Domingo

    Tiempo Temperatura Precipitaciones Viento Presión Humedad
    00:00 +16°C° 0 mm 2 mps 747 mmHg 86%
    01:00 +15°C° 0 mm 2 mps 747 mmHg 87%
    02:00 +15°C° 0 mm 2 mps 747 mmHg 89%
    03:00 +15°C° 0 mm 2 mps 747 mmHg 89%
    04:00 +15°C° 0 mm 2 mps 747 mmHg 89%
    05:00 +15°C° 0 mm 2 mps 746 mmHg 90%
    06:00 +17°C° 0 mm 3 mps 746 mmHg 83%
    07:00 +18°C° 0 mm 3 mps 746 mmHg 76%
    08:00 +20°C° 0 mm 3 mps 746 mmHg 69%
    09:00 +21°C° 0 mm 3 mps 746 mmHg 65%
    10:00 +23°C° 0 mm 4 mps 745 mmHg 60%
    11:00 +25°C° 0 mm 4 mps 745 mmHg 56%
    12:00 +25°C° 0,4 mm 4 mps 744 mmHg 62%
    13:00 +25°C° 0,4 mm 4 mps 744 mmHg 68%
    14:00 +23°C° 0,4 mm 4 mps 743 mmHg 73%
    15:00 +24°C° 1 mm 3 mps 743 mmHg 79%
    16:00 +22°C° 1 mm 3 mps 743 mmHg 84%
    17:00 +21°C° 1 mm 3 mps 742 mmHg 89%
    18:00 +20°C° 1,6 mm 3 mps 742 mmHg 91%
    19:00 +19°C° 1,6 mm 3 mps 742 mmHg 93%
    20:00 +18°C° 1,6 mm 2 mps 742 mmHg 96%
    21:00 +18°C° 0,1 mm 2 mps 742 mmHg 96%
    22:00 +17°C° 0,1 mm 2 mps 742 mmHg 97%
    23:00 +17°C° 0,1 mm 2 mps 742 mmHg 98%

    20 Agosto, Lunes

    Tiempo Temperatura Precipitaciones Viento Presión Humedad
    00:00 +16°C° 0 mm 2 mps 743 mmHg 98%
    01:00 +16°C° 0 mm 2 mps 743 mmHg 98%
    02:00 +16°C° 0 mm 2 mps 743 mmHg 98%
    03:00 +16°C° 0,1 mm 2 mps 743 mmHg 98%
    04:00 +16°C° 0,1 mm 2 mps 743 mmHg 98%
    05:00 +16°C° 0,1 mm 2 mps 743 mmHg 98%
    06:00 +16°C° 0,1 mm 2 mps 743 mmHg 96%
    07:00 +17°C° 0,1 mm 2 mps 744 mmHg 94%
    08:00 +17°C° 0,1 mm 2 mps 744 mmHg 92%
    09:00 +18°C° 0 mm 2 mps 744 mmHg 83%
    10:00 +19°C° 0 mm 2 mps 744 mmHg 73%
    11:00 +21°C° 0 mm 2 mps 744 mmHg 64%
    12:00 +21°C° 0 mm 2 mps 744 mmHg 60%
    13:00 +23°C° 0 mm 2 mps 744 mmHg 57%
    14:00 +23°C° 0 mm 2 mps 744 mmHg 53%
    15:00 +23°C° 0 mm 2 mps 744 mmHg 55%
    16:00 +23°C° 0 mm 2 mps 744 mmHg 58%
    17:00 +22°C° 0 mm 1 mps 744 mmHg 60%
    18:00 +20°C° 0 mm 1 mps 744 mmHg 67%
    19:00 +18°C° 0 mm 1 mps 744 mmHg 74%
    20:00 +15°C° 0 mm 1 mps 744 mmHg 81%
    21:00 +15°C° 0 mm 1 mps 744 mmHg 83%
    22:00 +14°C° 0 mm 1 mps 744 mmHg 85%
    23:00 +13°C° 0 mm 1 mps 744 mmHg 87%

    21 Agosto, Martes

    Tiempo Temperatura Precipitaciones Viento Presión Humedad
    00:00 +13°C° 0 mm 1 mps 744 mmHg 87%
    01:00 +13°C° 0 mm 1 mps 744 mmHg 88%
    02:00 +12°C° 0 mm 0 mps 744 mmHg 89%
    03:00 +12°C° 0 mm 1 mps 745 mmHg 89%
    04:00 +12°C° 0 mm 1 mps 745 mmHg 89%
    05:00 +12°C° 0 mm 1 mps 745 mmHg 90%
    06:00 +14°C° 0 mm 1 mps 745 mmHg 82%
    07:00 +16°C° 0 mm 1 mps 745 mmHg 74%
    08:00 +19°C° 0 mm 1 mps 745 mmHg 66%
    09:00 +20°C° 0 mm 2 mps 745 mmHg 60%
    10:00 +21°C° 0 mm 2 mps 744 mmHg 55%
    11:00 +23°C° 0 mm 2 mps 744 mmHg 49%
    12:00 +23°C° 0 mm 2 mps 744 mmHg 49%
    13:00 +24°C° 0 mm 3 mps 744 mmHg 48%
    14:00 +24°C° 0 mm 3 mps 743 mmHg 48%
    15:00 +24°C° 0,1 mm 2 mps 743 mmHg 55%
    16:00 +23°C° 0,1 mm 2 mps 742 mmHg 61%
    17:00 +23°C° 0,1 mm 2 mps 742 mmHg 68%
    18:00 +21°C° 0,1 mm 2 mps 742 mmHg 74%
    19:00 +19°C° 0,1 mm 2 mps 742 mmHg 81%
    20:00 +18°C° 0,1 mm 3 mps 741 mmHg 87%
    21:00 +18°C° 0 mm 3 mps 741 mmHg 89%
    22:00 +18°C° 0 mm 3 mps 741 mmHg 91%
    23:00 +18°C° 0 mm 3 mps 741 mmHg 93%
    Mostrar más